CZ-3B DEB, 40193

Orbit data source: Space-Track

CZ-3B DEB, 40193 is space debris in HEO originally from a launch on Mon, 19 Dec 2011 UTC launched from the Xichang Space Center, China (XSC). Debris objects in space refer to the collection of defunct objects orbiting the Earth. Examples of debris include non-operational satellites, rocket bodies, and fragments generated from explosions, collisions, or faulty payload assembly.

Loading next visibility...
Identifier
40193, 2011-077S
Orbit
HEO
Last TLE update
4 days ago
Origin
Manufacturer
CALT
Mission
Spacecraft
Bus & Motor
Unknown
Mass
Unknown
Launch date (UTC)
2011-12-19 (13 years ago)
Launch vehicle
Unknown
Launch site
Xichang Space Center, China (XSC)
Object type
Payload
Rocket body
Debris
Shape & HBR
Unknown
Radar Cross Section
Medium (>0.1 m² and <1 m²)

Expand to show TLE details & history

TLE from 4 days ago
0 CZ-3B DEB
1 40193U 11077S   25116.16297488  .00000092  00000-0  59437-3 0  9995
2 40193  25.5814 137.6852 7424222 157.1800 270.5378  1.86781914 68361
Epoch: 2025-04-26T03:54Z
Definitive object data (Epoch: 2025-04-26T03:54:41.029Z)
Latitude
-0.00009°
Longitude
-135.31027°
Altitude
33,160.119 km
Speed
2.419 km/s
True Right ascension
09h 11m 04s
True Declination
0° 00' 00"
Sunlit
Object was in daylight at TLE epoch
Visualization TLE readout
Latitude
17.26966°
Longitude
-95.77189°
Altitude
11,966.861 km
Speed
5.399 km/s
Apparent Right ascension
12h 52m 39s
Apparent Declination
4° 55' 39"
Sunlit
Object is in daylight
Visualization observer readout
Local Sidereal Time
07:41:49
Azimuth
94.125° ESE
Elevation
12.579°
Doppler factor
1
Orbital elements
Apogee altitude
42,157.198 km
Perigee altitude
796.717 km
Semi-major axis
27,855.094 km
Eccentricity
0.7424222
Inclination
25.5814°
RAAN
137.6852°
Arg. of periapsis
157.18°
True anomaly
202.86551°
Mean anomaly
270.5378°
Eccentric anomaly
235.48691°
Mean motion
0.46686 °/min
BSTAR
0.00059437
Orbital period
771.11 mins
Loading maneuver chart data...
Loading SW <> Apogee altitude chart data...
Loading historical data...
Loading historical data...
Loading historical data...
Loading historical data...
Loading historical data...
Loading historical data...
Loading historical data...

CZ-3B DEB Visibility forecast

Observer location: undefined°, undefined°

Span
Click to sort rows by Start time (UTC) header in descending order
Start Az.
Max El. time (UTC)
Max El. Az.
Max El.
End time (UTC)
End Az.
4 mins2025-04-30 00:09:29.984Z94.164° ESE2025-04-30 00:09:29.984Z94.164° ESE12.272°2025-04-30 00:13:29.984Z91.893° ESE
225 mins2025-04-30 20:24:29.984Z118.259° SE2025-05-01 00:09:29.984Z138.277° SSE31.501°2025-05-01 00:09:29.984Z138.277° SSE
|